User: anonymous   Login
Location: Unspecified
(0.0000°N, 0.0000°E)
Time: 23:19:26
(UTC+00:00)
Language:

UNISAT 5 - Orbit

View from above orbital plane
View from above orbital plane
View from above satellite
View from above satellite

Ground track
Ground track

The orbit data is extracted from the following two-line orbital elements,

1 39421U 13066F   17141.94578595 +.00000251 +00000-0 +33556-4 0  9995
2 39421 097.6460 199.9851 0030287 327.0752 032.8577 14.87350528188856
Epoch (UTC): 21 May 2017 22:41:55
Eccentricity: 0.0030287
inclination: 97.6460°
perigee height: 585 km
apogee height: 627 km
right ascension of ascending node: 199.9851°
argument of perigee: 327.0752°
revolutions per day: 14.87350528
mean anomaly at epoch: 32.8577°
orbit number at epoch: 18885

The dashed part of the orbit path shows where the satellite is in the earth's shadow,  

DLR